SY4AIL-13 Weather Reports


time (UTC)temp
C
wind
direction
speed
KPH
gust
KPH
rain 1hr
cm
rain 24hr
cm
rain mn
cm
humidity
%
barometer
mb
20260508043525 16 0.0 0.0 0.00 0.00 0.00 10 1024.8
20260508042524 16 0.0 0.0 0.00 0.00 0.00 10 1023.9
20260508041524 17 0.0 0.0 0.00 0.00 0.00 10 1023.6
20260508040525 17 0.0 0.0 0.00 0.00 0.00 10 1023.1
20260508035525 16 0.0 0.0 0.00 0.00 0.00 10 1023.2
20260508034524 16 0.0 0.0 0.00 0.00 0.00 10 1022.7
20260508033524 16 0.0 0.0 0.00 0.00 0.00 10 1022.3
20260508032525 16 0.0 0.0 0.00 0.00 0.00 10 1022.6
20260508031524 17 0.0 0.0 0.00 0.00 0.00 10 1022.4
20260508030524 17 0.0 0.0 0.00 0.00 0.00 10 1022.4
20260508025525 17 0.0 0.0 0.00 0.00 0.00 99 1022.4
20260508024524 17 0.0 0.0 0.00 0.00 0.00 99 1022.2
20260508023524 17 0.0 0.0 0.00 0.00 0.00 10 1022.4
20260508022524 17 0.0 0.0 0.00 0.00 0.00 96 1022.3
20260508021525 17 0.0 0.0 0.00 0.00 0.00 99 1021.8
20260508020524 16 0.0 0.0 0.00 0.00 0.00 10 1022.8
20260508015524 17 0.0 0.0 0.00 0.00 0.00 98 1022.6
20260508014524 17 0.0 0.0 0.00 0.00 0.00 98 1022.2
20260508013524 17 0.0 0.0 0.00 0.00 0.00 98 1022.5
20260508012539 17 0.0 0.0 0.00 0.00 0.00 99 1022.7
20260508011524 17 0.0 0.0 0.00 0.00 0.00 96 1022.7
20260508010524 17 0.0 0.0 0.00 0.00 0.00 95 1022.8
20260508005524 17 0.0 0.0 0.00 0.00 0.00 95 1022.6
20260508004539 17 0.0 0.0 0.00 0.00 0.00 92 1022.6
20260508003524 17 0.0 0.0 0.00 0.00 0.00 94 1022.8
20260508002524 17 0.0 0.0 0.00 0.00 0.00 93 1023.1
20260508001524 17 0.0 0.0 0.00 0.00 0.00 94 1022.8
20260508000524 17 0.0 0.0 0.00 0.00 0.00 93 1022.8
20260507235614 17 0.0 0.0 0.00 0.00 0.00 94 1022.9
20260507234524 17 0.0 0.0 0.00 0.00 0.00 92 1023.1
20260507233524 17 0.0 0.0 0.00 0.00 0.00 97 1023.5
20260507232527 17 0.0 0.0 0.00 0.00 0.00 98 1023.5
20260507231539 17 0.0 0.0 0.00 0.00 0.00 95 1023.8
20260507230519 17 0.0 0.0 0.00 0.00 0.00 95 1023.6
20260507225524 17 0.0 0.0 0.00 0.00 0.00 95 1023.9
20260507224524 17 0.0 0.0 0.00 0.00 0.00 93 1023.6
20260507223524 17 0.0 0.0 0.00 0.00 0.00 92 1023.9
20260507222526 17 0.0 0.0 0.00 0.00 0.00 89 1023.6
20260507221524 17 0.0 0.0 0.00 0.00 0.00 90 1023.9
20260507220524 18 0.0 0.0 0.00 0.00 0.00 92 1023.9
20260507215524 18 0.0 0.0 0.00 0.00 0.00 93 1023.8
20260507214524 18 0.0 0.0 0.00 0.00 0.00 88 1023.5
20260507213524 18 0.0 0.0 0.00 0.00 0.00 90 1023.6
20260507212523 18 0.0 0.0 0.00 0.00 0.00 91 1023.5
20260507211524 18 0.0 0.0 0.00 0.00 0.00 93 1023.8
20260507210524 18 0.0 0.0 0.00 0.00 0.00 92 1024.1
20260507205526 18 0.0 0.0 0.00 0.00 0.00 88 1024.1
20260507204524 18 0.0 0.0 0.00 0.00 0.00 86 1023.7
20260507203523 18 0.0 0.0 0.00 0.00 0.00 87 1023.9
20260507202526 18 0.0 0.0 0.00 0.00 0.00 89 1024.4
20260507201524 18 0.0 0.0 0.00 0.00 0.00 87 1024.5
20260507200523 18 0.0 0.0 0.00 0.00 0.00 86 1024.2
20260507195525 19 0.0 0.0 0.00 0.00 0.00 83 1024.3
20260507194539 19 0.0 0.0 0.00 0.00 0.00 82 1023.9
20260507193539 19 0.0 0.0 0.00 0.00 0.00 80 1024.1
20260507192524 19 0.0 0.0 0.00 0.00 0.00 80 1024.3
20260507191524 20 0.0 0.0 0.00 0.00 0.00 79 1024.2
20260507190523 20 0.0 0.0 0.00 0.00 0.00 78 1023.6
20260507185523 20 0.0 0.0 0.00 0.00 0.00 81 1024.0
20260507184539 20 0.0 0.0 0.00 0.00 0.00 78 1023.9
20260507182523 20 0.0 0.0 0.00 0.00 0.00 77 1023.0
20260507181523 20 0.0 0.0 0.00 0.00 0.00 79 1023.4
20260507180539 21 0.0 0.0 0.00 0.00 0.00 78 1023.1
20260507175523 21 0.0 0.0 0.00 0.00 0.00 77 1023.8
20260507174539 21 0.0 0.0 0.00 0.00 0.00 74 1023.2
20260507173538 22 0.0 0.0 0.00 0.00 0.00 70 1022.8
20260507172538 22 0.0 0.0 0.00 0.00 0.00 70 1023.1
20260507171538 22 0.0 0.0 0.00 0.00 0.00 72 1023.0
20260507170524 22 0.0 0.0 0.00 0.00 0.00 70 1022.8
20260507165524 23 0.0 0.0 0.00 0.00 0.00 65 1022.7
20260507164538 23 0.0 0.0 0.00 0.00 0.00 64 1022.9
20260507163523 23 0.0 0.0 0.00 0.00 0.00 67 1022.3
20260507162523 23 0.0 0.0 0.00 0.00 0.00 61 1023.1
20260507161554 23 0.0 0.0 0.00 0.00 0.00 62 1022.4
20260507160523 23 0.0 0.0 0.00 0.00 0.00 62 1022.5
20260507155523 23 0.0 0.0 0.00 0.00 0.00 60 1022.9
20260507154523 24 0.0 0.0 0.00 0.00 0.00 58 1022.4
20260507153539 24 0.0 0.0 0.00 0.00 0.00 57 1022.9
20260507152523 24 0.0 0.0 0.00 0.00 0.00 55 1022.5
20260507151539 24 0.0 0.0 0.00 0.00 0.00 54 1022.5
20260507150523 24 0.0 0.0 0.00 0.00 0.00 52 1023.1
20260507145539 25 0.0 0.0 0.00 0.00 0.00 52 1022.9
20260507144523 25 0.0 0.0 0.00 0.00 0.00 49 1022.4
20260507143523 24 0.0 0.0 0.00 0.00 0.00 52 1023.4
20260507142525 25 0.0 0.0 0.00 0.00 0.00 54 1022.0
20260507141538 25 0.0 0.0 0.00 0.00 0.00 53 1022.8
20260507140523 25 0.0 0.0 0.00 0.00 0.00 51 1022.2
20260507135523 24 0.0 0.0 0.00 0.00 0.00 54 1023.1
20260507134523 25 0.0 0.0 0.00 0.00 0.00 56 1022.3
20260507133523 25 0.0 0.0 0.00 0.00 0.00 56 1023.6
20260507132525 25 0.0 0.0 0.00 0.00 0.00 53 1023.1
20260507131523 25 0.0 0.0 0.00 0.00 0.00 52 1023.2
20260507130523 25 0.0 0.0 0.00 0.00 0.00 51 1022.6
20260507125525 25 0.0 0.0 0.00 0.00 0.00 54 1023.0
20260507124538 25 0.0 0.0 0.00 0.00 0.00 55 1023.0
20260507123523 26 0.0 0.0 0.00 0.00 0.00 56 1022.2
20260507122526 25 0.0 0.0 0.00 0.00 0.00 56 1023.4
20260507121523 25 0.0 0.0 0.00 0.00 0.00 57 1022.5
20260507120523 25 0.0 0.0 0.00 0.00 0.00 56 1023.2
20260507115538 25 0.0 0.0 0.00 0.00 0.00 56 1022.0
20260507114523 23 0.0 0.0 0.00 0.00 0.00 57 1023.6
20260507113523 23 0.0 0.0 0.00 0.00 0.00 59 1023.2
20260507112523 23 0.0 0.0 0.00 0.00 0.00 58 1024.0
20260507111523 23 0.0 0.0 0.00 0.00 0.00 62 1022.7
20260507110524 22 0.0 0.0 0.00 0.00 0.00 62 1023.7
20260507105523 22 0.0 0.0 0.00 0.00 0.00 61 1024.8
20260507104523 23 0.0 0.0 0.00 0.00 0.00 55 1023.2
20260507103523 23 0.0 0.0 0.00 0.00 0.00 59 1023.4
20260507102553 22 0.0 0.0 0.00 0.00 0.00 61 1024.3
20260507101523 22 0.0 0.0 0.00 0.00 0.00 60 1025.5
20260507100523 23 0.0 0.0 0.00 0.00 0.00 62 1023.7
20260507095523 23 0.0 0.0 0.00 0.00 0.00 64 1023.5
20260507094538 22 0.0 0.0 0.00 0.00 0.00 64 1023.7
20260507093523 22 0.0 0.0 0.00 0.00 0.00 63 1024.2
20260507092523 22 0.0 0.0 0.00 0.00 0.00 63 1023.6
20260507091523 22 0.0 0.0 0.00 0.00 0.00 64 1023.1
20260507090523 21 0.0 0.0 0.00 0.00 0.00 65 1023.1
20260507085523 21 0.0 0.0 0.00 0.00 0.00 69 1023.6
20260507084523 20 0.0 0.0 0.00 0.00 0.00 70 1022.8
20260507083524 20 0.0 0.0 0.00 0.00 0.00 69 1025.3
20260507082523 20 0.0 0.0 0.00 0.00 0.00 70 1024.2
20260507081522 20 0.0 0.0 0.00 0.00 0.00 69 1022.9
20260507080538 20 0.0 0.0 0.00 0.00 0.00 71 1023.6
20260507075522 20 0.0 0.0 0.00 0.00 0.00 70 1023.1
20260507074523 19 0.0 0.0 0.00 0.00 0.00 71 1024.5
20260507073523 20 0.0 0.0 0.00 0.00 0.00 71 1024.1
20260507072523 20 0.0 0.0 0.00 0.00 0.00 71 1022.9
20260507071523 19 0.0 0.0 0.00 0.00 0.00 68 1023.0
20260507070523 18 0.0 0.0 0.00 0.00 0.00 70 1022.5
20260507065538 18 0.0 0.0 0.00 0.00 0.00 74 1023.3
20260507064523 18 0.0 0.0 0.00 0.00 0.00 73 1023.4
20260507063522 17 0.0 0.0 0.00 0.00 0.00 75 1023.6
20260507062522 17 0.0 0.0 0.00 0.00 0.00 75 1023.1
20260507061522 17 0.0 0.0 0.00 0.00 0.00 78 1023.4
20260507060522 17 0.0 0.0 0.00 0.00 0.00 79 1023.7
20260507055522 17 0.0 0.0 0.00 0.00 0.00 80 1024.0
20260507054523 17 0.0 0.0 0.00 0.00 0.00 74 1024.1
20260507053523 17 0.0 0.0 0.00 0.00 0.00 75 1022.3
20260507052523 17 0.0 0.0 0.00 0.00 0.00 78 1022.1
20260507051522 16 0.0 0.0 0.00 0.00 0.00 77 1023.6
20260507050523 16 0.0 0.0 0.00 0.00 0.00 80 1022.8
20260507045523 16 0.0 0.0 0.00 0.00 0.00 84 1022.8
20260507044522 16 0.0 0.0 0.00 0.00 0.00 85 1022.3